User: anonymous   Login
Location: Bon Acre
(42.6442°N, 73.5758°W)
Time: 03:34:35
(UTC+00:00)
Language:

Okean 1 - Orbit

View from above orbital plane
View from above orbital plane
View from above satellite
View from above satellite

Ground track
Ground track

The orbit is defined by the following mean orbital elements,

1 19274U          26042.09768199 +.00000000 +00000-0 +34006-3 0 00005
2 19274  82.4704 289.9703 0011248 270.4051  89.5901 15.31116784    02
Epoch (UTC): 11 February 2026 02:20:39
Eccentricity: 0.0011248
inclination: 82.4704°
perigee height: 465 km
apogee height: 480 km
right ascension of ascending node: 289.9703°
argument of perigee: 270.4051°
revolutions per day: 15.31116784
mean anomaly at epoch: 89.5901°

The dashed part of the orbit path shows where the satellite is in the earth's shadow,  

DLR